| time (UTC) | temp C | wind direction | speed KPH | gust KPH | rain 1hr cm | rain 24hr cm | rain mn cm | humidity % | barometer mb |
| 20260904223338 | 27 | 0.0 | 0.0 | 0.00 | 0.13 | 0.13 | 49 | 1013.2 | |
| 20260904222317 | 27 | 0.0 | 0.0 | 0.00 | 0.13 | 0.13 | 48 | 1013.4 | |
| 20260904221317 | 27 | 0.0 | 0.0 | 0.00 | 0.13 | 0.13 | 48 | 1013.4 | |
| 20260904220337 | 27 | 0.0 | 0.0 | 0.00 | 0.13 | 0.13 | 49 | 1013.5 | |
| 20260904215317 | 27 | 0.0 | 0.0 | 0.00 | 0.13 | 0.13 | 49 | 1013.6 | |
| 20260904214317 | 27 | 0.0 | 0.0 | 0.00 | 0.13 | 0.13 | 50 | 1013.7 | |
| 20260904213317 | 26 | 0.0 | 0.0 | 0.00 | 0.13 | 0.13 | 49 | 1013.7 | |
| 20260904212338 | 26 | 0.0 | 0.0 | 0.00 | 0.13 | 0.13 | 53 | 1013.7 | |
| 20260904211317 | 26 | 0.0 | 0.0 | 0.00 | 0.13 | 0.13 | 53 | 1013.7 | |
| 20260904210318 | 25 | 0.0 | 0.0 | 0.00 | 0.13 | 0.13 | 53 | 1013.9 | |
| 20260904205338 | 25 | 0.0 | 0.0 | 0.00 | 0.13 | 0.13 | 54 | 1014.0 | |
| 20260904204317 | 25 | 0.0 | 0.0 | 0.00 | 0.13 | 0.13 | 56 | 1014.0 | |
| 20260904203337 | 24 | 0.0 | 0.0 | 0.00 | 0.13 | 0.13 | 59 | 1014.2 | |
| 20260904202317 | 24 | 0.0 | 0.0 | 0.00 | 0.13 | 0.13 | 58 | 1014.2 | |
| 20260904201317 | 24 | 0.0 | 0.0 | 0.00 | 0.13 | 0.13 | 60 | 1014.4 | |
| 20260904200317 | 23 | 0.0 | 0.0 | 0.00 | 0.13 | 0.13 | 61 | 1014.4 | |
| 20260904195317 | 23 | 0.0 | 0.0 | 0.00 | 0.13 | 0.13 | 61 | 1014.5 | |
| 20260904194317 | 23 | 0.0 | 0.0 | 0.00 | 0.13 | 0.13 | 61 | 1014.5 | |
| 20260904193337 | 23 | 0.0 | 0.0 | 0.00 | 0.13 | 0.13 | 61 | 1014.5 | |
| 20260904192337 | 23 | 0.0 | 0.0 | 0.00 | 0.13 | 0.13 | 63 | 1014.6 | |
| 20260904191317 | 22 | 0.0 | 0.0 | 0.00 | 0.13 | 0.13 | 65 | 1014.7 | |
| 20260904190348 | 22 | 0.0 | 0.0 | 0.00 | 0.13 | 0.13 | 61 | 1014.7 | |
| 20260904190217 | 22 | 0.0 | 0.0 | 0.00 | 0.13 | 0.13 | 62 | 1014.8 | |
| 20260904185116 | 22 | 0.0 | 0.0 | 0.00 | 0.13 | 0.13 | 64 | 1014.8 | |
| 20260904184116 | 21 | 0.0 | 0.0 | 0.00 | 0.13 | 0.13 | 66 | 1014.9 | |
| 20260904183118 | 21 | 0.0 | 0.0 | 0.00 | 0.13 | 0.13 | 69 | 1014.9 | |
| 20260904182116 | 20 | 0.0 | 0.0 | 0.00 | 0.13 | 0.13 | 72 | 1015.0 | |
| 20260904181118 | 20 | 0.0 | 0.0 | 0.00 | 0.13 | 0.13 | 74 | 1015.0 | |
| 20260904180116 | 19 | 0.0 | 0.0 | 0.00 | 0.13 | 0.13 | 77 | 1015.1 | |
| 20260904175116 | 19 | 0.0 | 0.0 | 0.00 | 0.13 | 0.13 | 80 | 1015.1 | |
| 20260904174116 | 19 | 0.0 | 0.0 | 0.00 | 0.13 | 0.13 | 84 | 1015.1 | |
| 20260904173138 | 18 | 0.0 | 0.0 | 0.00 | 0.13 | 0.13 | 88 | 1015.1 | |
| 20260904172116 | 17 | 0.0 | 0.0 | 0.00 | 0.13 | 0.13 | 90 | 1015.0 | |
| 20260904171116 | 17 | 0.0 | 0.0 | 0.00 | 0.13 | 0.13 | 93 | 1015.1 | |
| 20260904170116 | 16 | 0.0 | 0.0 | 0.00 | 0.13 | 0.13 | 95 | 1015.0 | |
| 20260904165116 | 16 | 0.0 | 0.0 | 0.00 | 0.13 | 0.13 | 94 | 1015.0 | |
| 20260904164116 | 16 | 0.0 | 0.0 | 0.00 | 0.13 | 0.13 | 95 | 1015.0 | |
| 20260904163116 | 16 | 0.0 | 0.0 | 0.00 | 0.13 | 0.13 | 96 | 1015.0 | |
| 20260904162156 | 16 | 0.0 | 0.0 | 0.00 | 0.13 | 0.13 | 96 | 1014.9 | |
| 20260904161118 | 16 | 0.0 | 0.0 | 0.00 | 0.13 | 0.13 | 95 | 1014.9 | |
| 20260904160116 | 16 | 0.0 | 0.0 | 0.00 | 0.13 | 0.13 | 96 | 1014.8 | |
| 20260904155116 | 16 | 0.0 | 0.0 | 0.00 | 0.13 | 0.13 | 95 | 1014.8 | |
| 20260904154116 | 16 | 0.0 | 0.0 | 0.00 | 0.13 | 0.13 | 96 | 1014.8 | |
| 20260904153136 | 15 | 0.0 | 0.0 | 0.00 | 0.13 | 0.13 | 95 | 1014.7 | |
| 20260904152118 | 15 | 0.0 | 0.0 | 0.00 | 0.13 | 0.13 | 95 | 1014.7 | |
| 20260904151136 | 15 | 0.0 | 0.0 | 0.00 | 0.13 | 0.13 | 95 | 1014.7 | |
| 20260904150118 | 15 | 0.0 | 0.0 | 0.00 | 0.13 | 0.13 | 95 | 1014.6 | |
| 20260904145116 | 15 | 0.0 | 0.0 | 0.00 | 0.13 | 0.13 | 95 | 1014.5 | |
| 20260904144116 | 15 | 0.0 | 0.0 | 0.00 | 0.13 | 0.13 | 95 | 1014.3 | |
| 20260904143116 | 15 | 0.0 | 0.0 | 0.00 | 0.13 | 0.13 | 95 | 1014.2 | |
| 20260904142116 | 15 | 0.0 | 0.0 | 0.00 | 0.13 | 0.13 | 95 | 1014.3 | |
| 20260904141116 | 15 | 0.0 | 0.0 | 0.00 | 0.13 | 0.13 | 95 | 1014.1 | |
| 20260904140116 | 15 | 0.0 | 0.0 | 0.00 | 0.13 | 0.13 | 95 | 1014.0 | |
| 20260904135116 | 15 | 0.0 | 0.0 | 0.00 | 0.13 | 0.13 | 94 | 1013.8 | |
| 20260904134116 | 15 | 0.0 | 0.0 | 0.03 | 0.13 | 0.13 | 94 | 1013.8 | |
| 20260904133116 | 15 | 0.0 | 0.0 | 0.03 | 0.13 | 0.13 | 95 | 1013.6 | |
| 20260904132116 | 15 | 0.0 | 0.0 | 0.03 | 0.13 | 0.13 | 95 | 1013.6 | |
| 20260904131116 | 15 | 0.0 | 0.0 | 0.03 | 0.13 | 0.13 | 94 | 1013.4 | |
| 20260904125317 | 15 | 0.0 | 0.0 | 0.03 | 0.13 | 0.13 | 94 | 1013.4 | |
| 20260904124317 | 15 | 0.0 | 0.0 | 0.00 | 0.10 | 0.10 | 94 | 1013.3 | |
| 20260904123317 | 15 | 0.0 | 0.0 | 0.00 | 0.10 | 0.10 | 94 | 1013.2 | |
| 20260904122338 | 15 | 0.0 | 0.0 | 0.00 | 0.10 | 0.10 | 94 | 1013.3 | |
| 20260904121337 | 15 | 0.0 | 0.0 | 0.00 | 0.10 | 0.10 | 94 | 1013.2 | |
| 20260904120317 | 15 | 0.0 | 0.0 | 0.00 | 0.10 | 0.10 | 94 | 1013.2 | |
| 20260904115317 | 15 | 0.0 | 0.0 | 0.00 | 0.10 | 0.10 | 94 | 1013.1 | |
| 20260904114317 | 15 | 0.0 | 0.0 | 0.00 | 0.10 | 0.10 | 93 | 1013.1 | |
| 20260904113317 | 15 | 0.0 | 0.0 | 0.03 | 0.10 | 0.10 | 93 | 1013.1 | |
| 20260904112337 | 15 | 0.0 | 0.0 | 0.03 | 0.10 | 0.10 | 93 | 1013.0 | |
| 20260904111317 | 15 | 0.0 | 0.0 | 0.05 | 0.10 | 0.10 | 93 | 1013.0 | |
| 20260904110337 | 15 | 0.0 | 0.0 | 0.05 | 0.10 | 0.10 | 93 | 1012.9 | |
| 20260904105317 | 15 | 0.0 | 0.0 | 0.08 | 0.10 | 0.10 | 92 | 1012.9 | |
| 20260904104317 | 15 | 0.0 | 0.0 | 0.08 | 0.10 | 0.10 | 92 | 1012.9 | |
| 20260904103319 | 15 | 0.0 | 0.0 | 0.05 | 0.08 | 0.08 | 92 | 1012.8 | |
| 20260904102319 | 16 | 0.0 | 0.0 | 0.05 | 0.08 | 0.08 | 91 | 1012.8 | |
| 20260904101317 | 16 | 0.0 | 0.0 | 0.03 | 0.05 | 0.05 | 91 | 1012.8 | |
| 20260904100317 | 16 | 0.0 | 0.0 | 0.05 | 0.05 | 0.05 | 91 | 1012.8 | |
| 20260904095337 | 16 | 0.0 | 0.0 | 0.03 | 0.03 | 0.03 | 90 | 1012.8 | |
| 20260904094317 | 17 | 0.0 | 0.0 | 0.03 | 0.03 | 0.03 | 91 | 1012.7 | |
| 20260904093317 | 17 | 0.0 | 0.0 | 0.03 | 0.03 | 0.03 | 91 | 1012.7 | |
| 20260904092317 | 17 | 0.0 | 0.0 | 0.03 | 0.03 | 0.03 | 91 | 1012.7 | |
| 20260904091317 | 17 | 0.0 | 0.0 | 0.03 | 0.03 | 0.03 | 91 | 1012.7 | |
| 20260904090417 | 17 | 0.0 | 0.0 | 0.00 | 0.00 | 0.00 | 90 | 1012.8 | |
| 20260904085317 | 17 | 0.0 | 0.0 | 0.00 | 0.00 | 0.00 | 90 | 1012.9 | |
| 20260904084337 | 17 | 0.0 | 0.0 | 0.00 | 0.00 | 0.00 | 90 | 1012.8 | |
| 20260904083318 | 17 | 0.0 | 0.0 | 0.00 | 0.00 | 0.00 | 90 | 1012.9 | |
| 20260904082317 | 17 | 0.0 | 0.0 | 0.00 | 0.00 | 0.00 | 90 | 1012.9 | |
| 20260904081357 | 17 | 0.0 | 0.0 | 0.00 | 0.00 | 0.00 | 90 | 1012.9 | |
| 20260904080317 | 16 | 0.0 | 0.0 | 0.00 | 0.00 | 0.00 | 90 | 1012.9 | |
| 20260904075338 | 16 | 0.0 | 0.0 | 0.00 | 0.00 | 0.00 | 90 | 1012.9 | |
| 20260904074338 | 16 | 0.0 | 0.0 | 0.00 | 0.00 | 0.00 | 90 | 1012.9 | |
| 20260904073317 | 16 | 0.0 | 0.0 | 0.00 | 0.00 | 0.00 | 90 | 1012.8 | |
| 20260904072337 | 16 | 0.0 | 0.0 | 0.00 | 0.00 | 0.00 | 89 | 1012.7 | |
| 20260904071337 | 16 | 0.0 | 0.0 | 0.00 | 0.00 | 0.00 | 89 | 1012.8 | |
| 20260904070335 | 16 | 0.0 | 0.0 | 0.00 | 0.00 | 0.00 | 89 | 1012.9 | |
| 20260904070233 | 16 | 0.0 | 0.0 | 0.00 | 0.00 | 0.00 | 89 | 1012.8 | |
| 20260904065118 | 16 | 0.0 | 0.0 | 0.00 | 0.00 | 0.00 | 89 | 1012.8 | |
| 20260904064118 | 16 | 0.0 | 0.0 | 0.00 | 0.00 | 0.00 | 88 | 1012.9 | |
| 20260904063118 | 16 | 0.0 | 0.0 | 0.00 | 0.00 | 0.00 | 89 | 1013.0 | |
| 20260904062138 | 16 | 0.0 | 0.0 | 0.00 | 0.00 | 0.00 | 88 | 1012.9 | |
| 20260904061117 | 16 | 0.0 | 0.0 | 0.00 | 0.00 | 0.00 | 88 | 1013.0 | |
| 20260904060117 | 17 | 0.0 | 0.0 | 0.00 | 0.00 | 0.00 | 88 | 1012.9 | |
| 20260904055118 | 17 | 0.0 | 0.0 | 0.00 | 0.00 | 0.00 | 88 | 1013.0 | |
| 20260904054117 | 17 | 0.0 | 0.0 | 0.00 | 0.00 | 0.00 | 88 | 1013.1 | |
| 20260904053117 | 17 | 0.0 | 0.0 | 0.00 | 0.00 | 0.00 | 88 | 1013.2 | |
| 20260904052118 | 17 | 0.0 | 0.0 | 0.00 | 0.00 | 0.00 | 88 | 1013.3 | |
| 20260904051117 | 17 | 0.0 | 0.0 | 0.00 | 0.00 | 0.00 | 88 | 1013.3 | |
| 20260904050135 | 17 | 0.0 | 0.0 | 0.00 | 0.00 | 0.00 | 88 | 1013.3 | |
| 20260904045116 | 17 | 0.0 | 0.0 | 0.00 | 0.00 | 0.00 | 87 | 1013.4 | |
| 20260904044116 | 17 | 0.0 | 0.0 | 0.00 | 0.00 | 0.00 | 87 | 1013.4 | |
| 20260904043157 | 17 | 0.0 | 0.0 | 0.00 | 0.00 | 0.00 | 87 | 1013.4 | |
| 20260904042116 | 17 | 0.0 | 0.0 | 0.00 | 0.00 | 0.00 | 87 | 1013.3 | |
| 20260904041116 | 17 | 0.0 | 0.0 | 0.00 | 0.00 | 0.00 | 87 | 1013.3 | |
| 20260904040116 | 17 | 0.0 | 0.0 | 0.00 | 0.00 | 0.00 | 87 | 1013.2 | |
| 20260904035116 | 17 | 0.0 | 0.0 | 0.00 | 0.00 | 0.00 | 86 | 1013.1 | |
| 20260904034157 | 17 | 0.0 | 0.0 | 0.00 | 0.00 | 0.00 | 85 | 1013.0 | |
| 20260904033137 | 17 | 0.0 | 0.0 | 0.00 | 0.00 | 0.00 | 85 | 1012.9 | |
| 20260904032136 | 17 | 0.0 | 0.0 | 0.00 | 0.00 | 0.00 | 84 | 1012.8 | |
| 20260904031116 | 17 | 0.0 | 0.0 | 0.00 | 0.00 | 0.00 | 83 | 1012.8 | |
| 20260904030116 | 17 | 0.0 | 0.0 | 0.00 | 0.00 | 0.00 | 82 | 1012.8 | |
| 20260904025138 | 17 | 0.0 | 0.0 | 0.00 | 0.00 | 0.00 | 82 | 1012.8 | |
| 20260904024116 | 17 | 0.0 | 0.0 | 0.00 | 0.00 | 0.00 | 81 | 1012.7 | |
| 20260904023119 | 18 | 0.0 | 0.0 | 0.00 | 0.00 | 0.00 | 79 | 1012.7 | |
| 20260904022137 | 18 | 0.0 | 0.0 | 0.00 | 0.00 | 0.00 | 78 | 1012.8 | |
| 20260904021116 | 18 | 0.0 | 0.0 | 0.00 | 0.00 | 0.00 | 76 | 1012.8 | |
| 20260904020116 | 19 | 0.0 | 0.0 | 0.00 | 0.00 | 0.00 | 75 | 1012.8 | |
| 20260904015116 | 20 | 0.0 | 0.0 | 0.00 | 0.00 | 0.00 | 73 | 1012.7 | |
| 20260904014137 | 20 | 0.0 | 1.6 | 0.00 | 0.00 | 0.00 | 71 | 1012.7 | |
| 20260904013118 | 20 | 0.0 | 0.0 | 0.00 | 0.00 | 0.00 | 71 | 1012.7 | |
| 20260904012116 | 21 | 0.0 | 0.0 | 0.00 | 0.00 | 0.00 | 70 | 1012.7 | |
| 20260904011116 | 21 | 0.0 | 0.0 | 0.00 | 0.00 | 0.00 | 70 | 1012.6 | |
| 20260904005117 | 21 | 248 | 1.6 | 9.7 | 0.00 | 0.00 | 0.00 | 67 | 1012.7 |
| 20260904004117 | 21 | 0.0 | 0.0 | 0.00 | 0.00 | 0.00 | 66 | 1012.6 | |
| 20260904003119 | 21 | 248 | 3.2 | 17.7 | 0.00 | 0.00 | 0.00 | 65 | 1012.5 |
| 20260904002117 | 22 | 270 | 9.7 | 22.5 | 0.00 | 0.00 | 0.00 | 64 | 1012.6 |
| 20260904001119 | 22 | 270 | 3.2 | 11.3 | 0.00 | 0.00 | 0.00 | 63 | 1012.6 |
| 20260904000117 | 22 | 0.0 | 1.6 | 0.00 | 0.00 | 0.00 | 63 | 1012.7 | |
| 20260903235137 | 22 | 0.0 | 0.0 | 0.00 | 0.00 | 0.00 | 63 | 1012.7 | |
| 20260903234119 | 22 | 0.0 | 0.0 | 0.00 | 0.00 | 0.00 | 61 | 1012.8 | |
| 20260903233119 | 23 | 0.0 | 0.0 | 0.00 | 0.00 | 0.00 | 61 | 1012.9 | |
| 20260903232137 | 23 | 248 | 8.0 | 16.1 | 0.00 | 0.00 | 0.00 | 62 | 1012.9 |
| 20260903231117 | 23 | 248 | 12.9 | 17.7 | 0.00 | 0.00 | 0.00 | 60 | 1012.9 |
| 20260903230117 | 23 | 270 | 11.3 | 22.5 | 0.00 | 0.00 | 0.00 | 59 | 1013.0 |
| 20260903225137 | 23 | 248 | 8.0 | 25.7 | 0.00 | 0.00 | 0.00 | 57 | 1013.2 |